User: anonymous   Login
Location: NJAA Observatory
(40.6819°N, 74.8979°W)
Time: 16:45:45
(UTC-04:00)
Language:

Cosmos 1328 Rocket - Orbit

View from above orbital plane
View from above orbital plane
View from above satellite
View from above satellite

Ground track
Ground track

The orbit data is extracted from the following two-line orbital elements,

1 12988U 81117B   17295.55564677  .00000102  00000-0  90927-5 0  9990
2 12988  82.5223 313.8813 0019038 143.0011 331.4585 14.84673435938712
Epoch (UTC): 22 October 2017 13:20:07
Eccentricity: 0.0019038
inclination: 82.5223°
perigee height: 601 km
apogee height: 628 km
right ascension of ascending node: 313.8813°
argument of perigee: 143.0011°
revolutions per day: 14.84673435
mean anomaly at epoch: 331.4585°
orbit number at epoch: 93871

The dashed part of the orbit path shows where the satellite is in the earth's shadow,  

DLR